| time (UTC) | temp F | wind direction | speed knots | gust knots | rain 1hr in | rain 24hr in | rain mn in | humidity % | barometer mb |
| 20260507182542 | 63 | 351 | 2.6 | 2.6 | 0.00 | 0.00 | 0.00 | 39 | 1012.5 |
| 20260507175538 | 64 | 59 | 1.7 | 1.7 | 0.00 | 0.00 | 0.00 | 39 | 1012.9 |
| 20260507172538 | 63 | 234 | 1.7 | 1.7 | 0.00 | 0.00 | 0.00 | 39 | 1013.5 |
| 20260507165535 | 61 | 24 | 1.7 | 1.7 | 0.00 | 0.00 | 0.00 | 46 | 1013.9 |
| 20260507162532 | 62 | 31 | 1.7 | 1.7 | 0.00 | 0.00 | 0.00 | 41 | 1013.9 |
| 20260507155528 | 60 | 312 | 3.5 | 3.5 | 0.00 | 0.00 | 0.00 | 45 | 1014.9 |
| 20260507152525 | 59 | 29 | 2.6 | 2.6 | 0.00 | 0.00 | 0.00 | 47 | 1014.9 |
| 20260507145521 | 57 | 300 | 1.7 | 1.7 | 0.00 | 0.00 | 0.00 | 50 | 1015.2 |
| 20260507142520 | 55 | 198 | 1.7 | 1.7 | 0.00 | 0.00 | 0.00 | 58 | 1016.0 |
| 20260507135520 | 54 | 352 | 1.7 | 1.7 | 0.00 | 0.00 | 0.00 | 52 | 1016.7 |
| 20260507132517 | 53 | 264 | 1.7 | 1.7 | 0.00 | 0.00 | 0.00 | 56 | 1016.7 |
| 20260507125518 | 51 | 328 | 2.6 | 2.6 | 0.00 | 0.00 | 0.00 | 59 | 1016.7 |
| 20260507122515 | 50 | 108 | 0.0 | 0.0 | 0.00 | 0.00 | 0.00 | 63 | 1016.7 |
| 20260507115511 | 50 | 354 | 0.0 | 0.0 | 0.00 | 0.00 | 0.00 | 63 | 1016.7 |
| 20260507112509 | 49 | 174 | 0.0 | 0.0 | 0.00 | 0.00 | 0.00 | 64 | 1016.3 |
| 20260507105506 | 49 | 120 | 1.7 | 1.7 | 0.00 | 0.00 | 0.00 | 66 | 1016.0 |
| 20260507102504 | 48 | 72 | 0.0 | 0.0 | 0.00 | 0.00 | 0.00 | 71 | 1015.6 |
| 20260507095502 | 49 | 96 | 0.0 | 0.0 | 0.00 | 0.00 | 0.00 | 63 | 1015.6 |
| 20260507092502 | 49 | 72 | 0.0 | 0.0 | 0.00 | 0.00 | 0.00 | 65 | 1015.2 |
| 20260507085459 | 50 | 11 | 0.0 | 0.0 | 0.00 | 0.00 | 0.00 | 62 | 1014.9 |
| 20260507082456 | 50 | 30 | 1.7 | 1.7 | 0.00 | 0.00 | 0.00 | 59 | 1014.9 |
| 20260507075452 | 50 | 193 | 0.0 | 0.0 | 0.00 | 0.00 | 0.00 | 66 | 1014.9 |
| 20260507072451 | 50 | 83 | 2.6 | 2.6 | 0.00 | 0.00 | 0.00 | 69 | 1015.2 |
| 20260507065451 | 51 | 132 | 0.0 | 0.0 | 0.00 | 0.00 | 0.00 | 73 | 1015.2 |
| 20260507062446 | 51 | 24 | 0.0 | 0.0 | 0.00 | 0.00 | 0.00 | 76 | 1015.2 |
| 20260507055445 | 52 | 30 | 1.7 | 1.7 | 0.00 | 0.00 | 0.00 | 80 | 1015.2 |
| 20260507052441 | 52 | 53 | 3.5 | 3.5 | 0.00 | 0.00 | 0.00 | 79 | 1014.9 |
| 20260507045438 | 53 | 0 | 1.7 | 1.7 | 0.00 | 0.00 | 0.00 | 81 | 1014.9 |
| 20260507042435 | 53 | 18 | 1.7 | 1.7 | 0.00 | 0.00 | 0.00 | 81 | 1014.9 |
| 20260507035430 | 53 | 349 | 1.7 | 1.7 | 0.00 | 0.23 | 0.23 | 80 | 1015.6 |
| 20260507032425 | 54 | 10 | 1.7 | 1.7 | 0.00 | 0.23 | 0.23 | 78 | 1014.9 |
| 20260507025423 | 54 | 6 | 1.7 | 1.7 | 0.00 | 0.23 | 0.23 | 81 | 1015.2 |
| 20260507022423 | 54 | 9 | 1.7 | 1.7 | 0.00 | 0.23 | 0.23 | 79 | 1014.5 |
| 20260507015421 | 54 | 283 | 1.7 | 1.7 | 0.00 | 0.23 | 0.23 | 82 | 1014.9 |
| 20260507012419 | 55 | 10 | 2.6 | 2.6 | 0.00 | 0.23 | 0.23 | 83 | 1014.9 |
| 20260507005415 | 56 | 25 | 1.7 | 1.7 | 0.00 | 0.23 | 0.23 | 84 | 1014.9 |
| 20260507002410 | 56 | 347 | 1.7 | 1.7 | 0.00 | 0.23 | 0.23 | 83 | 1014.5 |
| 20260506235408 | 57 | 353 | 3.5 | 3.5 | 0.00 | 0.23 | 0.23 | 82 | 1013.9 |
| 20260506232406 | 58 | 354 | 3.5 | 3.5 | 0.00 | 0.23 | 0.23 | 81 | 1012.9 |
| 20260506225404 | 60 | 0 | 1.7 | 1.7 | 0.00 | 0.23 | 0.23 | 80 | 1012.9 |
| 20260506222401 | 60 | 337 | 2.6 | 2.6 | 0.00 | 0.23 | 0.23 | 80 | 1012.9 |
| 20260506215359 | 61 | 324 | 2.6 | 2.6 | 0.00 | 0.23 | 0.23 | 79 | 1012.5 |
| 20260506212358 | 62 | 328 | 4.3 | 4.3 | 0.00 | 0.23 | 0.23 | 81 | 1011.7 |
| 20260506205355 | 64 | 333 | 1.7 | 1.7 | 0.00 | 0.23 | 0.23 | 81 | 1011.4 |
| 20260506202353 | 64 | 323 | 1.7 | 1.7 | 0.00 | 0.23 | 0.23 | 88 | 1011.1 |
| 20260506195349 | 64 | 232 | 1.7 | 1.7 | 0.00 | 0.23 | 0.23 | 89 | 1010.7 |
| 20260506192347 | 64 | 234 | 0.9 | 0.9 | 0.00 | 0.23 | 0.23 | 91 | 1010.7 |
| 20260506185345 | 62 | 168 | 1.7 | 1.7 | 0.00 | 0.23 | 0.23 | 94 | 1011.1 |